Weather in Orevo

Russia / Oryol Oblast     52°49′21″N   37°38′48″E
temp.,
°C
wind,
m/s
gust,
m/s
humid.,
%
clouds,
%
prec.,
mm/h
press.,
hPa
HPBL,
m
19 april, mon
mon1900:00+6e3380100 0.0 101835
03:00+5e3582100 0.0 101887
06:00+6ene358596 0.0 1018131
09:00+8e357498 0.0 1017441
12:00+11ese336293 0.6 10171176
15:00+11ne556398 2.0 10161104
18:00+9ne5775100 0.8 1016872
21:00+8ene5990100 1.5 1017464
20 april, tue
tue2000:00+8se3695100 9.7 1015659
03:00+7e699296 11.5 1015489
06:00+7e61090100 0.2 1015788
09:00+7e61087100 0.3 1015651
12:00+6ene71091100 0.4 1013525
15:00+6ene81291100 0.5 1011658
18:00+5ne81493100 1.3 1006611
21:00+2nne81597100 12.6 1003708
21 april, wed
wed2100:00+1nnw91499100 11.0 997405
03:00+1w81399100 13.8 999494
06:00+1wsw71498100 0.4 1002641
09:00+2wsw61298100 0.4 1006790
12:00+5wsw61188100 0.1 10091038
15:00+9wsw5106866 0.1 10101468
18:00+8sw488092 0.3 1012396
21:00+6sw368788 0.6 1014146
22 april, thu
thu2200:00+4sw388987 0.1 1016151
03:00+3ssw378973 0.1 1016124
06:00+3s4108729 0.0 1017184
09:00+6s4108494 0.0 1018314
12:00+13ssw68575 0.1 10181431
15:00+15ssw6851100 0.2 10182183
18:00+12s496733 0.0 1019368
21:00+9s488141 0.1 1020143
23 april, fri
fri2300:00+9s378492 0.0 1019165
03:00+7s37895 0.0 1019116
06:00+6sse38918 0.0 1019147
09:00+11s587345 0.0 1018433
12:00+14s57615 0.1 1017748
15:00+16s674491 0.1 10152252
18:00+14s596039 0.2 1014711
21:00+11s513745 0.3 1014323